[[{"header":{"parameterUnit":"m.s-1","parameterCategory":1,"la1":30.2991,"la2":30.254,"lo1":-89.0895,"lo2":-89.0444,"dy":0.0017,"dx":0.0017,"nx":28,"ny":28,"refTime":"2025-01-21T03:00:00:Z","depth":0,"parameterNumber":2,"parameterNumberName":"U-component_of_WINDS"},"data":[0,0,0,0,0,0,0,0,0,0,0,0,0,0,0,0,0,0,0,0,0,0,0,0,0,0,0,0,0,0,0,0,0,0,0,0,0,0,0,0,0,0,0,0,0,0,0,0,0,0,0,0,0,0,0,0,0,0,0.0402,0.0401,0,0.034,0.034,0.0339,0.0319,0.0319,0.032,0.032,0.0254,0.0252,0.025,0,0,0,0,0,0,0,0,0,0,0,0,0,0.05,0.0498,0.0402,0.0401,0.04,0.034,0.034,0.0339,0.0319,0.0319,0.032,0.032,0.0255,0.0253,0.025,0,0,0,0,0,0,0,0,0,0,0,0,0,0.045,0.0497,0.0402,0.0383,0.0381,0.0341,0.034,0.0339,0.0319,0.0319,0.032,0.032,0.0256,0.0253,0.025,0.0223,0,0,0.0241,0.0239,0,0,0,0,0,0,0,0,0.0452,0.0446,0.0387,0.0385,0.0382,0.0338,0.035,0.03,0.0319,0.0342,0.032,0.0321,0.0282,0.0276,0.0264,0.022,0.0217,0.024,0.0238,0.0237,0.0236,0,0,0,0,0,0,0,0.0456,0.0448,0.0377,0.0386,0.0383,0.0377,0.0371,0.034,0.031,0.034,0.0339,0.0332,0.028,0.0267,0.0262,0.0216,0.024,0.0238,0.0236,0.0235,0.0146,0.0145,0,0,0,0,0,0,0.0463,0.0452,0.0379,0.0376,0.0419,0.0375,0.0368,0.0352,0.0311,0.0305,0.0332,0.0331,0.0272,0.0266,0.026,0.0225,0.0237,0.0234,0.0233,0.0146,0.0146,0.0145,0,0,0,0,0,0,0.0465,0.0457,0.0382,0.0413,0.0403,0.0373,0.0355,0.035,0.0337,0.0304,0.0298,0.0324,0.0272,0.0264,0.0232,0.0222,0.0233,0.023,0.0147,0.0146,0.0145,0.0155,0,0,0,0,0,0,0.0468,0.0458,0.0447,0.0413,0.0402,0.0356,0.0354,0.0349,0.0332,0.0331,0.0295,0.0289,0.0272,0.0237,0.0229,0.0218,0.0228,0.0148,0.0147,0.0146,0.0156,0.0155,0.0154,0,0,0,0,0,0.0472,0.0452,0.0447,0.0438,0.0388,0.0355,0.0349,0.033,0.0331,0.032,0.0299,0.0291,0.0225,0.0234,0.0225,0.0213,0.0148,0.0147,0.0146,0.0156,0.0155,0.0154,0,0,0,0,0,0,0.0485,0.0447,0.0441,0.041,0.0386,0.0352,0.0338,0.0329,0.0303,0.0303,0.028,0.0272,0.0242,0.0224,0.0235,0.0185,0.0186,0.0183,0.0197,0.0196,0.0195,0.0199,0.0225,0,0,0,0,0,0.0485,0.0462,0.043,0.0405,0.0394,0.0368,0.0353,0.034,0.0314,0.0304,0.028,0.0255,0.0228,0.0211,0.0185,0.0153,0.0145,0.0141,0.014,0.014,0.0137,0.0119,0.0116,0.0141,0.0141,0.0141,0,0,0.0483,0.046,0.0446,0.0408,0.0388,0.0364,0.036,0.0334,0.0316,0.0299,0.0268,0.025,0.022,0.0188,0.0173,0.0173,0.0129,0.0138,0.0138,0.0136,0.0117,0.0115,0.0113,0.014,0.014,0.014,0,0,0.0468,0.0448,0.0426,0.0406,0.0376,0.0359,0.0354,0.0321,0.0309,0.0277,0.0264,0.0242,0.0197,0.0176,0.0159,0.0137,0.0128,0.0129,0.0125,0.0107,0.0106,0.0104,0.0095,0.0092,0.0127,0.0127,0.0127,0,0.0469,0.0433,0.0415,0.0391,0.0374,0.0359,0.0335,0.0317,0.028,0.0268,0.0269,0.0212,0.0191,0.0154,0.0148,0.0136,0.0128,0.0133,0.0108,0.0106,0.0103,0.0095,0.0092,0.0127,0.0127,0.0127,0.0127,0,0.0436,0.0412,0.0397,0.0363,0.0344,0.0321,0.0298,0.0281,0.0271,0.0253,0.0221,0.0195,0.0163,0.0154,0.0143,0.0115,0.0116,0.0112,0.0113,0.0102,0.0093,0.009,0.0128,0.0128,0.0128,0.0127,0,0,0.0427,0.0383,0.0378,0.0362,0.0329,0.0309,0.0285,0.0255,0.024,0.0216,0.0194,0.0157,0.0153,0.0135,0.0121,0.0106,0.0089,0.0104,0.0103,0.0101,0.0056,0.0058,0.0055,0.0083,0.0083,0.0082,0.0059,0,0.0407,0.0363,0.0346,0.031,0.0287,0.0273,0.0252,0.0228,0.0212,0.0189,0.0171,0.0144,0.0142,0.0131,0.0115,0.0094,0.0079,0.0096,0.0062,0.0061,0.0069,0.0051,0.0053,0.0032,0.0055,0.0055,0.0054,0,0.0377,0.0353,0.0315,0.0285,0.0274,0.0256,0.0227,0.0206,0.0179,0.0168,0.0147,0.0135,0.0108,0.0111,0.0073,0.0085,0.007,0.0058,0.0057,0.0052,0.0056,0.0045,0.0025,0.0021,0.0049,0.0049,0.005,0,0.0373,0.0331,0.0303,0.029,0.0254,0.0241,0.0225,0.0199,0.0182,0.0157,0.0145,0.0117,0.0101,0.0079,0.0059,0.0064,0.0023,0.0025,0.0012,0.0013,0.0003,0.0004,-0.002,-0.0005,-0.0005,-0.0005,-0.0005,0,0.0352,0.0329,0.0301,0.0283,0.0257,0.0238,0.0212,0.0196,0.0172,0.0151,0.0137,0.0117,0.0092,0.0069,0.0053,0.0024,0.0017,0.0006,0.0002,0.0007,0.0008,-0.0004,-0.0003,-0.0006,-0.0005,-0.0005,-0.0005,0,0.0342,0.0323,0.0291,0.026,0.0252,0.0234,0.0207,0.0189,0.0172,0.0145,0.0138,0.0111,0.0083,0.0061,0.0024,0.0014,-0.0018,-0.0022,-0.0008,-0.0011,-0.0023,-0.0021,-0.0056,-0.0062,-0.0041,-0.0042,-0.0042,0,0.0329,0.0312,0.0279,0.0264,0.0249,0.0225,0.0208,0.0188,0.0171,0.014,0.0126,0.0097,0.0072,0.0028,0.0005,-0.0024,-0.0029,-0.0039,-0.0034,-0.0028,-0.003,-0.0029,-0.0032,-0.004,-0.0041,-0.0041,-0.0041,0,0.0309,0.03,0.0277,0.025,0.023,0.0208,0.0185,0.0174,0.015,0.0131,0.0103,0.0084,0.0047,0.0018,-0.0012,-0.003,-0.004,-0.0042,-0.0047,-0.0042,-0.0034,-0.004,-0.0011,-0.0041,-0.0041,-0.0041,-0.0041,-0.0041,0.0296,0.028,0.0255,0.0229,0.021,0.019,0.0171,0.0153,0.0129,0.0098,0.0088,0.0059,0.0032,-0.001,-0.0027,-0.0051,-0.0052,-0.0058,-0.006,-0.0062,-0.0061,-0.0029,-0.0057,-0.0057,-0.0057,-0.0057,-0.0057,0,0.0274,0.0257,0.0234,0.0203,0.0183,0.0178,0.0152,0.0135,0.011,0.0087,0.0064,0.0031,0.0003,-0.0022,-0.0051,-0.0065,-0.0071,-0.0073,-0.0072,-0.0076,-0.0059,-0.0052,-0.0068,-0.0068,-0.0068,-0.0068,-0.0068,-0.0068,0.026,0.0232,0.022,0.0183,0.0166,0.0138,0.0124,0.0104,0.0086,0.005,0.0027,0.0012,-0.0012,-0.0043,-0.0069,-0.0076,-0.0086,-0.0087,-0.0095,-0.0079,-0.0077,-0.0076,-0.007,-0.0089,-0.0089,-0.0111,-0.0111,-0.0111]},{"header":{"parameterUnit":"m.s-1","parameterCategory":1,"la1":30.2991,"la2":30.254,"lo1":-89.0895,"lo2":-89.0444,"dy":0.0017,"dx":0.0017,"nx":28,"ny":28,"refTime":"2025-01-21T03:00:00:Z","depth":0,"parameterNumber":3,"parameterNumberName":"V-component_of_WINDS"},"data":[0,0,0,0,0,0,0,0,0,0,0,0,0,0,0,0,0,0,0,0,0,0,0,0,0,0,0,0,0,0,0,0,0,0,0,0,0,0,0,0,0,0,0,0,0,0,0,0,0,0,0,0,0,0,0,0,0,0,-1.9772,-1.9772,0,-1.9829,-1.9829,-1.983,-1.984,-1.9839,-1.9839,-1.9838,-1.9895,-1.9897,-1.9899,0,0,0,0,0,0,0,0,0,0,0,0,0,-1.9669,-1.9671,-1.9772,-1.9772,-1.9773,-1.9829,-1.9829,-1.983,-1.984,-1.9839,-1.9839,-1.9838,-1.9894,-1.9896,-1.9899,0,0,0,0,0,0,0,0,0,0,0,0,0,-1.9719,-1.9672,-1.9772,-1.9785,-1.9786,-1.9828,-1.9829,-1.983,-1.984,-1.9839,-1.9838,-1.9838,-1.9893,-1.9896,-1.9899,-1.9932,0,0,-1.9908,-1.9909,0,0,0,0,0,0,0,0,-1.9716,-1.9722,-1.9782,-1.9784,-1.9786,-1.9826,-1.9814,-1.9864,-1.984,-1.982,-1.9838,-1.9837,-1.9873,-1.9877,-1.9889,-1.9934,-1.9937,-1.9908,-1.991,-1.9911,-1.9912,0,0,0,0,0,0,0,-1.9712,-1.972,-1.9794,-1.9783,-1.9785,-1.9787,-1.9793,-1.9824,-1.9849,-1.9821,-1.9822,-1.9829,-1.9873,-1.9886,-1.9891,-1.9937,-1.9908,-1.9911,-1.9913,-1.9914,-2.0011,-2.0012,0,0,0,0,0,0,-1.9707,-1.9717,-1.9792,-1.9796,-1.9748,-1.9789,-1.9796,-1.9814,-1.9849,-1.9854,-1.9829,-1.9829,-1.9882,-1.9887,-1.9893,-1.9932,-1.9911,-1.9914,-1.9916,-2.001,-2.0011,-2.0012,0,0,0,0,0,0,-1.9705,-1.9714,-1.979,-1.9757,-1.9767,-1.9792,-1.9812,-1.9816,-1.9829,-1.9855,-1.986,-1.9838,-1.9881,-1.9889,-1.9922,-1.9935,-1.9915,-1.9918,-2.0009,-2.001,-2.0011,-2.0012,0,0,0,0,0,0,-1.9702,-1.9713,-1.9726,-1.9757,-1.9768,-1.9819,-1.9813,-1.9817,-1.9834,-1.9834,-1.9865,-1.9869,-1.9881,-1.9917,-1.9925,-1.9938,-1.992,-2.0008,-2.001,-2.0011,-2.0011,-2.0013,-2.0015,0,0,0,0,0,-1.9698,-1.9724,-1.9726,-1.9735,-1.9785,-1.982,-1.9826,-1.9841,-1.9835,-1.9848,-1.9865,-1.9868,-1.9932,-1.9921,-1.9929,-1.9944,-2.0007,-2.0009,-2.0011,-2.001,-2.0013,-2.0015,0,0,0,0,0,0,-1.9693,-1.9728,-1.9731,-1.9768,-1.9791,-1.9821,-1.9838,-1.9843,-1.9867,-1.9866,-1.9883,-1.9889,-1.9922,-1.9936,-1.9923,-1.9976,-1.9969,-1.9973,-1.9966,-1.9969,-1.997,-1.9966,-1.9923,0,0,0,0,0,-1.9696,-1.9721,-1.975,-1.978,-1.9791,-1.9813,-1.9828,-1.9837,-1.9861,-1.9871,-1.989,-1.9913,-1.9938,-1.9954,-1.9979,-2.0013,-2.002,-2.0027,-2.0029,-2.0031,-2.0034,-2.0052,-2.0056,-2.0018,-2.0018,-2.0018,0,0,-1.9703,-1.9725,-1.974,-1.9779,-1.9798,-1.9823,-1.9821,-1.9848,-1.9866,-1.9875,-1.9907,-1.9922,-1.9948,-1.9982,-1.9998,-1.9995,-2.0046,-2.0033,-2.0034,-2.0036,-2.0055,-2.0058,-2.0061,-2.0019,-2.0019,-2.0019,0,0,-1.9728,-1.9747,-1.9774,-1.9793,-1.9821,-1.9835,-1.9841,-1.9871,-1.9881,-1.9914,-1.9921,-1.9943,-1.9986,-2.0004,-2.0019,-2.005,-2.0054,-2.0058,-2.0068,-2.0086,-2.0089,-2.0092,-2.0103,-2.0106,-2.0061,-2.0061,-2.0061,0,-1.9732,-1.9771,-1.9787,-1.9813,-1.983,-1.9839,-1.9866,-1.9883,-1.9918,-1.9929,-1.9925,-1.9979,-1.9997,-2.0035,-2.0043,-2.0055,-2.0062,-2.0055,-2.0088,-2.0091,-2.0093,-2.0104,-2.0108,-2.0061,-2.0061,-2.0061,-2.0061,0,-1.9775,-1.9802,-1.9819,-1.9853,-1.9872,-1.9898,-1.9917,-1.9934,-1.9941,-1.9956,-1.9988,-2.0011,-2.004,-2.0049,-2.0057,-2.0088,-2.0085,-2.0085,-2.0078,-2.0097,-2.0107,-2.0111,-2.0061,-2.0061,-2.0061,-2.0061,0,0,-1.9798,-1.984,-1.9846,-1.9861,-1.9893,-1.9914,-1.994,-1.9969,-1.9983,-2.0007,-2.0028,-2.0065,-2.0064,-2.0081,-2.009,-2.0106,-2.0128,-2.0103,-2.0104,-2.0107,-2.0163,-2.0163,-2.0168,-2.0131,-2.0132,-2.0132,-2.0161,0,-1.9826,-1.9875,-1.9889,-1.9929,-1.9953,-1.9962,-1.9985,-2.0006,-2.002,-2.0042,-2.0057,-2.0082,-2.008,-2.009,-2.0106,-2.0122,-2.014,-2.012,-2.0151,-2.0152,-2.0144,-2.0173,-2.0174,-2.0199,-2.0165,-2.0166,-2.0166,0,-1.9866,-1.9891,-1.9933,-1.9961,-1.9972,-1.9992,-2.002,-2.0041,-2.0065,-2.0074,-2.0093,-2.0101,-2.0127,-2.0119,-2.0156,-2.0142,-2.0155,-2.0165,-2.0166,-2.017,-2.016,-2.0176,-2.0208,-2.0212,-2.0172,-2.0172,-2.0171,0,-1.9878,-1.9922,-1.9953,-1.9965,-1.9999,-2.0013,-2.0028,-2.0051,-2.0068,-2.0091,-2.0102,-2.0128,-2.0142,-2.0162,-2.0176,-2.0169,-2.0211,-2.0204,-2.0219,-2.0218,-2.0227,-2.0226,-2.0261,-2.0236,-2.0236,-2.0236,-2.0236,0,-1.9908,-1.9933,-1.9958,-1.9977,-2.0006,-2.0022,-2.0049,-2.0064,-2.0085,-2.0106,-2.0115,-2.0135,-2.0153,-2.0175,-2.0186,-2.0215,-2.0221,-2.0228,-2.0231,-2.0227,-2.0226,-2.0236,-2.0234,-2.0237,-2.0237,-2.0237,-2.0236,0,-1.9926,-1.9944,-1.9978,-2.0007,-2.0015,-2.0035,-2.006,-2.0078,-2.0092,-2.0119,-2.0126,-2.0147,-2.0174,-2.019,-2.0223,-2.0231,-2.0262,-2.0264,-2.0254,-2.0255,-2.0268,-2.0266,-2.031,-2.0316,-2.0287,-2.0288,-2.0288,0,-1.9944,-1.9964,-1.9995,-2.001,-2.0025,-2.005,-2.0066,-2.0082,-2.0099,-2.0128,-2.0142,-2.0169,-2.0192,-2.0233,-2.0251,-2.0276,-2.0279,-2.0292,-2.0282,-2.0278,-2.0278,-2.0277,-2.0278,-2.0294,-2.0294,-2.0294,-2.0294,0,-1.9973,-1.9981,-2.0005,-2.0032,-2.0052,-2.0073,-2.0095,-2.0107,-2.0127,-2.0145,-2.0172,-2.0189,-2.0223,-2.0249,-2.0276,-2.029,-2.0295,-2.0297,-2.0302,-2.0298,-2.0291,-2.0294,-2.0257,-2.0296,-2.0296,-2.0296,-2.0296,-2.0295,-1.9992,-2.0009,-2.0034,-2.006,-2.0078,-2.0098,-2.0117,-2.0133,-2.0156,-2.0185,-2.0193,-2.0221,-2.0244,-2.0281,-2.0295,-2.0317,-2.0315,-2.0322,-2.0323,-2.0325,-2.0325,-2.0288,-2.0322,-2.0322,-2.0322,-2.0322,-2.0322,0,-2.0021,-2.0037,-2.0061,-2.0091,-2.0112,-2.0115,-2.0139,-2.0156,-2.0181,-2.0202,-2.0224,-2.0254,-2.028,-2.03,-2.0326,-2.0339,-2.0342,-2.0345,-2.0344,-2.0347,-2.0325,-2.0318,-2.0342,-2.0342,-2.0342,-2.0342,-2.0342,-2.0342,-2.0038,-2.0069,-2.0079,-2.0118,-2.0134,-2.0162,-2.0175,-2.0193,-2.021,-2.0244,-2.0266,-2.0279,-2.0299,-2.0327,-2.035,-2.0355,-2.0364,-2.0367,-2.0372,-2.0351,-2.0349,-2.0347,-2.034,-2.0368,-2.0368,-2.0392,-2.0392,-2.0393]}]]